Time,TemperatureF,DewpointF,PressureIn,WindDirection,WindDirectionDegrees,WindSpeedMPH,WindSpeedGustMPH,Humidity,HourlyPrecipIn,Conditions,Clouds,dailyrainin,SoftwareType,DateUTC
2013-04-04 06:50:00,69.0,67.8,29.89,SE,136,2.0,3.0,96,0.00,,,0.01,Wunderground v.1.15,2013-04-04 10:50:00,
2013-04-04 06:55:00,69.0,67.8,29.89,ESE,119,1.0,3.0,96,0.00,,,0.01,Wunderground v.1.15,2013-04-04 10:55:00,
2013-04-04 07:00:00,69.1,67.6,29.90,East,99,1.0,1.0,95,0.00,,,0.01,Wunderground v.1.15,2013-04-04 11:00:00,
2013-04-04 07:05:00,69.1,67.6,29.90,ESE,115,1.0,1.0,95,0.00,,,0.01,Wunderground v.1.15,2013-04-04 11:05:00,
2013-04-04 07:10:00,69.0,67.5,29.89,SE,130,2.0,5.0,95,0.00,,,0.01,Wunderground v.1.15,2013-04-04 11:10:00,
2013-04-04 07:15:00,69.0,67.5,29.89,ESE,120,3.0,5.0,95,0.00,,,0.01,Wunderground v.1.15,2013-04-04 11:15:00,
2013-04-04 07:20:00,69.0,67.5,29.88,SSE,154,2.0,2.0,95,0.00,,,0.01,Wunderground v.1.15,2013-04-04 11:20:00,
2013-04-04 07:25:00,69.0,67.5,29.88,SE,125,1.0,2.0,95,0.00,,,0.01,Wunderground v.1.15,2013-04-04 11:25:00,
2013-04-04 07:30:00,68.9,67.4,29.88,SE,130,1.0,1.0,95,0.00,,,0.01,Wunderground v.1.15,2013-04-04 11:30:00,
2013-04-04 07:35:00,68.9,67.1,29.89,SE,134,2.0,2.0,94,0.00,,,0.01,Wunderground v.1.15,2013-04-04 11:35:00,
2013-04-04 07:40:00,68.8,67.0,29.88,SSE,161,1.0,1.0,94,0.00,,,0.01,Wunderground v.1.15,2013-04-04 11:40:00,
2013-04-04 07:45:00,68.8,67.0,29.88,SSW,196,1.0,3.0,94,0.00,,,0.01,Wunderground v.1.15,2013-04-04 11:45:00,
2013-04-04 07:50:00,68.8,67.0,29.89,South,190,2.0,5.0,94,0.00,,,0.01,Wunderground v.1.15,2013-04-04 11:50:00,
2013-04-04 07:55:00,68.8,67.0,29.90,SSW,202,3.0,10.0,94,0.00,,,0.01,Wunderground v.1.15,2013-04-04 11:55:00,
2013-04-04 08:05:00,68.9,67.1,29.92,WSW,246,1.0,10.0,94,0.00,,,0.01,Wunderground v.1.15,2013-04-04 12:05:00,
2013-04-04 08:15:00,68.9,66.8,29.93,West,281,1.0,10.0,93,0.00,,,0.01,Wunderground v.1.15,2013-04-04 12:15:00,
2013-04-04 08:20:00,69.0,66.9,29.94,West,278,2.0,2.0,93,0.00,,,0.01,Wunderground v.1.15,2013-04-04 12:20:00,
2013-04-04 08:25:00,69.0,66.9,29.94,West,275,2.0,10.0,93,0.00,,,0.01,Wunderground v.1.15,2013-04-04 12:25:00,
2013-04-04 08:30:00,69.1,67.0,29.94,NNW,335,1.0,1.0,93,0.00,,,0.01,Wunderground v.1.15,2013-04-04 12:30:00,
2013-04-04 08:35:00,69.2,67.1,29.94,WSW,252,0.0,3.0,93,0.00,,,0.01,Wunderground v.1.15,2013-04-04 12:35:00,
2013-04-04 08:45:00,69.2,67.1,29.95,West,274,2.0,2.0,93,0.00,,,0.01,Wunderground v.1.15,2013-04-04 12:45:00,
2013-04-04 08:50:00,69.2,67.1,29.94,West,261,1.0,10.0,93,0.00,,,0.01,Wunderground v.1.15,2013-04-04 12:50:00,
2013-04-04 08:55:00,69.2,67.1,29.94,West,263,0.0,10.0,93,0.00,,,0.01,Wunderground v.1.15,2013-04-04 12:55:00,
2013-04-04 09:00:00,69.2,67.1,29.94,West,263,0.0,10.0,93,0.00,,,0.01,Wunderground v.1.15,2013-04-04 13:00:00,
2013-04-04 09:05:00,69.5,67.4,29.95,West,263,0.0,10.0,93,0.00,,,0.01,Wunderground v.1.15,2013-04-04 13:05:00,
2013-04-04 09:15:00,69.6,67.2,29.96,SW,231,1.0,10.0,92,0.00,,,0.01,Wunderground v.1.15,2013-04-04 13:15:00,
2013-04-04 09:25:00,70.0,67.3,29.95,SSW,202,1.0,10.0,91,0.00,,,0.01,Wunderground v.1.15,2013-04-04 13:25:00,
2013-04-04 09:30:00,70.6,67.8,29.93,SSW,194,1.0,1.0,91,0.00,,,0.01,Wunderground v.1.15,2013-04-04 13:30:00,
2013-04-04 09:35:00,71.1,67.7,29.94,South,176,1.0,2.0,89,0.00,,,0.01,Wunderground v.1.15,2013-04-04 13:35:00,
2013-04-04 09:40:00,71.2,67.8,29.95,West,269,1.0,1.0,89,0.00,,,0.01,Wunderground v.1.15,2013-04-04 13:40:00,
2013-04-04 09:50:00,71.1,67.7,29.95,SSW,194,1.0,1.0,89,0.00,,,0.01,Wunderground v.1.15,2013-04-04 13:50:00,
2013-04-04 09:55:00,71.1,67.7,29.94,South,190,1.0,10.0,89,0.00,,,0.01,Wunderground v.1.15,2013-04-04 13:55:00,
2013-04-04 10:00:00,71.3,67.9,29.94,SSW,197,0.0,10.0,89,0.00,,,0.01,Wunderground v.1.15,2013-04-04 14:00:00,
2013-04-04 10:10:00,71.9,68.2,29.93,SSW,198,0.0,10.0,88,0.00,,,0.01,Wunderground v.1.15,2013-04-04 14:10:00,
2013-04-04 10:15:00,72.0,68.2,29.93,SSW,198,2.0,10.0,88,0.00,,,0.01,Wunderground v.1.15,2013-04-04 14:15:00,
2013-04-04 10:25:00,72.2,68.1,29.94,SSW,207,1.0,10.0,87,0.00,,,0.01,Wunderground v.1.15,2013-04-04 14:25:00,
2013-04-04 10:30:00,72.0,68.2,29.95,South,190,2.0,10.0,88,0.00,,,0.01,Wunderground v.1.15,2013-04-04 14:30:00,
2013-04-04 10:35:00,71.8,68.1,29.95,SSW,195,3.0,10.0,88,0.00,,,0.01,Wunderground v.1.15,2013-04-04 14:35:00,
2013-04-04 10:45:00,72.1,68.3,29.96,SSW,196,1.0,10.0,88,0.00,,,0.01,Wunderground v.1.15,2013-04-04 14:45:00,
2013-04-04 10:50:00,72.0,68.2,29.95,South,184,1.0,1.0,88,0.00,,,0.01,Wunderground v.1.15,2013-04-04 14:50:00,
2013-04-04 11:00:00,72.2,68.4,29.96,SSW,201,2.0,10.0,88,0.00,,,0.01,Wunderground v.1.15,2013-04-04 15:00:00,
2013-04-04 11:10:00,72.4,68.6,29.96,SSW,196,3.0,3.0,88,0.00,,,0.01,Wunderground v.1.15,2013-04-04 15:10:00,
2013-04-04 11:15:00,72.5,68.4,29.97,South,182,3.0,4.0,87,0.00,,,0.01,Wunderground v.1.15,2013-04-04 15:15:00,
2013-04-04 11:25:00,72.7,68.6,29.97,South,189,2.0,10.0,87,0.00,,,0.01,Wunderground v.1.15,2013-04-04 15:25:00,
2013-04-04 11:30:00,72.8,68.7,29.97,South,190,1.0,1.0,87,0.00,,,0.01,Wunderground v.1.15,2013-04-04 15:30:00,
2013-04-04 11:40:00,72.6,68.2,29.97,South,181,2.0,10.0,86,0.00,,,0.01,Wunderground v.1.15,2013-04-04 15:40:00,
2013-04-04 11:45:00,72.6,68.5,29.97,SSW,194,2.0,10.0,87,0.00,,,0.01,Wunderground v.1.15,2013-04-04 15:45:00,
2013-04-04 11:50:00,72.6,68.5,29.97,South,169,2.0,2.0,87,0.00,,,0.01,Wunderground v.1.15,2013-04-04 15:50:00,
2013-04-04 12:00:00,72.8,68.7,29.97,SSE,165,2.0,2.0,87,0.00,,,0.01,Wunderground v.1.15,2013-04-04 16:00:00,
2013-04-04 12:05:00,72.6,68.5,29.97,South,189,2.0,10.0,87,0.00,,,0.01,Wunderground v.1.15,2013-04-04 16:05:00,
2013-04-04 12:15:00,72.8,68.7,29.97,SE,140,1.0,10.0,87,0.00,,,0.01,Wunderground v.1.15,2013-04-04 16:15:00,
2013-04-04 12:25:00,72.5,68.4,29.96,SSE,167,1.0,10.0,87,0.00,,,0.01,Wunderground v.1.15,2013-04-04 16:25:00,
2013-04-04 12:30:00,72.5,68.4,29.96,South,182,0.0,10.0,87,0.00,,,0.01,Wunderground v.1.15,2013-04-04 16:30:00,
2013-04-04 12:35:00,72.5,68.4,29.97,SSW,193,0.0,10.0,87,0.00,,,0.01,Wunderground v.1.15,2013-04-04 16:35:00,
2013-04-04 12:40:00,72.6,68.5,29.98,South,188,1.0,1.0,87,0.00,,,0.01,Wunderground v.1.15,2013-04-04 16:40:00,
2013-04-04 12:45:00,72.5,68.4,29.98,SSW,203,2.0,6.0,87,0.00,,,0.01,Wunderground v.1.15,2013-04-04 16:45:00,
2013-04-04 12:55:00,72.5,68.4,29.98,SSW,202,3.0,10.0,87,0.00,,,0.01,Wunderground v.1.15,2013-04-04 16:55:00,
2013-04-04 13:00:00,72.5,68.4,29.98,SSW,204,3.0,10.0,87,0.00,,,0.01,Wunderground v.1.15,2013-04-04 17:00:00,
2013-04-04 13:05:00,72.4,68.3,29.98,South,184,4.0,10.0,87,0.00,,,0.01,Wunderground v.1.15,2013-04-04 17:05:00,
2013-04-04 13:10:00,72.2,68.4,29.98,South,184,5.0,5.0,88,0.00,,,0.01,Wunderground v.1.15,2013-04-04 17:10:00,
2013-04-04 13:15:00,71.9,68.5,29.98,SSW,193,4.0,10.0,89,0.00,,,0.01,Wunderground v.1.15,2013-04-04 17:15:00,
2013-04-04 13:25:00,71.4,68.3,29.99,South,184,6.0,10.0,90,0.00,,,0.02,Wunderground v.1.15,2013-04-04 17:25:00,
2013-04-04 13:30:00,71.1,68.0,29.99,SSE,150,6.0,6.0,90,0.00,,,0.02,Wunderground v.1.15,2013-04-04 17:30:00,
2013-04-04 13:35:00,70.9,68.1,29.97,SSE,155,4.0,10.0,91,0.00,,,0.03,Wunderground v.1.15,2013-04-04 17:35:00,
2013-04-04 13:40:00,70.8,68.0,29.96,ESE,113,1.0,1.0,91,0.00,,,0.03,Wunderground v.1.15,2013-04-04 17:40:00,
2013-04-04 13:50:00,70.3,67.9,29.93,SSE,156,4.0,10.0,92,0.05,,,0.04,Wunderground v.1.15,2013-04-04 17:50:00,
2013-04-04 14:00:00,70.0,67.9,29.94,SSE,162,5.0,5.0,93,0.04,,,0.04,Wunderground v.1.15,2013-04-04 18:00:00,
2013-04-04 14:05:00,70.0,67.9,29.94,SSW,195,4.0,10.0,93,0.04,,,0.05,Wunderground v.1.15,2013-04-04 18:05:00,
2013-04-04 14:10:00,69.9,67.8,29.93,South,184,3.0,10.0,93,0.04,,,0.05,Wunderground v.1.15,2013-04-04 18:10:00,
2013-04-04 14:15:00,69.7,67.6,29.92,East,82,3.0,10.0,93,0.04,,,0.05,Wunderground v.1.15,2013-04-04 18:15:00,
2013-04-04 14:20:00,69.6,67.5,29.94,South,187,3.0,10.0,93,0.00,,,0.05,Wunderground v.1.15,2013-04-04 18:20:00,
2013-04-04 14:25:00,69.4,67.3,29.95,SSW,194,4.0,10.0,93,0.00,,,0.06,Wunderground v.1.15,2013-04-04 18:25:00,
2013-04-04 14:35:00,69.2,67.1,29.94,SSW,198,1.0,10.0,93,0.00,,,0.06,Wunderground v.1.15,2013-04-04 18:35:00,
2013-04-04 14:45:00,69.1,67.3,29.96,SW,220,1.0,10.0,94,0.00,,,0.06,Wunderground v.1.15,2013-04-04 18:45:00,
2013-04-04 14:50:00,69.1,67.3,29.95,WSW,245,0.0,10.0,94,0.00,,,0.06,Wunderground v.1.15,2013-04-04 18:50:00,
2013-04-04 14:55:00,69.1,67.3,29.95,WSW,245,0.0,10.0,94,0.00,,,0.06,Wunderground v.1.15,2013-04-04 18:55:00,
2013-04-04 15:00:00,69.1,67.3,29.95,WSW,241,0.0,10.0,94,0.00,,,0.06,Wunderground v.1.15,2013-04-04 19:00:00,
2013-04-04 15:05:00,69.0,66.9,29.95,South,181,0.0,10.0,93,0.00,,,0.06,Wunderground v.1.15,2013-04-04 19:05:00,
2013-04-04 15:10:00,68.8,66.7,29.94,SSW,197,1.0,1.0,93,0.00,,,0.06,Wunderground v.1.15,2013-04-04 19:10:00,
2013-04-04 15:15:00,68.8,66.7,29.93,South,188,1.0,10.0,93,0.00,,,0.06,Wunderground v.1.15,2013-04-04 19:15:00,
2013-04-04 15:25:00,68.7,66.6,29.92,SSW,200,0.0,10.0,93,0.00,,,0.06,Wunderground v.1.15,2013-04-04 19:25:00,
2013-04-04 15:30:00,68.6,66.5,29.92,SSW,211,1.0,1.0,93,0.00,,,0.06,Wunderground v.1.15,2013-04-04 19:30:00,
2013-04-04 15:35:00,68.4,66.0,29.91,SSW,198,1.0,10.0,92,0.00,,,0.06,Wunderground v.1.15,2013-04-04 19:35:00,
2013-04-04 15:45:00,68.2,65.8,29.85,SE,124,4.0,10.0,92,0.00,,,0.06,Wunderground v.1.15,2013-04-04 19:45:00,
2013-04-04 15:50:00,68.0,65.6,29.88,SE,139,4.0,4.0,92,0.00,,,0.06,Wunderground v.1.15,2013-04-04 19:50:00,
2013-04-04 16:00:00,68.1,65.7,29.87,ESE,120,0.0,10.0,92,0.00,,,0.06,Wunderground v.1.15,2013-04-04 20:00:00,
2013-04-04 16:05:00,68.2,65.8,29.86,ESE,111,1.0,10.0,92,0.00,,,0.06,Wunderground v.1.15,2013-04-04 20:05:00,
2013-04-04 16:10:00,68.4,65.7,29.86,SE,142,1.0,1.0,91,0.00,,,0.06,Wunderground v.1.15,2013-04-04 20:10:00,
2013-04-04 16:20:00,68.7,66.0,29.89,WNW,283,1.0,1.0,91,0.00,,,0.06,Wunderground v.1.15,2013-04-04 20:20:00,
2013-04-04 16:25:00,68.7,66.0,29.89,West,260,2.0,3.0,91,0.00,,,0.06,Wunderground v.1.15,2013-04-04 20:25:00,
2013-04-04 16:30:00,68.6,65.5,29.89,SW,230,2.0,10.0,90,0.00,,,0.06,Wunderground v.1.15,2013-04-04 20:30:00,
2013-04-04 16:35:00,68.5,65.4,29.89,WSW,248,2.0,10.0,90,0.00,,,0.06,Wunderground v.1.15,2013-04-04 20:35:00,
2013-04-04 16:40:00,68.5,65.4,29.89,West,261,1.0,1.0,90,0.00,,,0.06,Wunderground v.1.15,2013-04-04 20:40:00,
2013-04-04 16:50:00,68.6,65.5,29.88,WSW,250,1.0,1.0,90,0.00,,,0.06,Wunderground v.1.15,2013-04-04 20:50:00,
2013-04-04 17:00:00,69.5,65.8,29.88,WSW,247,1.0,10.0,88,0.00,,,0.06,Wunderground v.1.15,2013-04-04 21:00:00,
2013-04-04 17:05:00,69.5,65.8,29.88,West,263,1.0,10.0,88,0.00,,,0.06,Wunderground v.1.15,2013-04-04 21:05:00,
2013-04-04 17:10:00,69.7,65.7,29.88,SSW,205,1.0,1.0,87,0.00,,,0.06,Wunderground v.1.15,2013-04-04 21:10:00,
2013-04-04 17:15:00,69.7,65.3,29.88,SSW,200,2.0,2.0,86,0.00,,,0.06,Wunderground v.1.15,2013-04-04 21:15:00,
2013-04-04 17:20:00,70.0,65.6,29.88,West,267,2.0,10.0,86,0.00,,,0.06,Wunderground v.1.15,2013-04-04 21:20:00,
2013-04-04 17:30:00,70.1,65.7,29.86,SSW,199,1.0,1.0,86,0.00,,,0.06,Wunderground v.1.15,2013-04-04 21:30:00,
2013-04-04 17:40:00,70.5,66.1,29.86,SSW,209,0.0,10.0,86,0.00,,,0.06,Wunderground v.1.15,2013-04-04 21:40:00,
2013-04-04 17:45:00,70.5,65.8,29.86,SSW,192,0.0,10.0,85,0.00,,,0.06,Wunderground v.1.15,2013-04-04 21:45:00,
2013-04-04 17:50:00,70.7,66.0,29.87,SSW,192,0.0,10.0,85,0.00,,,0.06,Wunderground v.1.15,2013-04-04 21:50:00,
2013-04-04 17:55:00,70.9,65.8,29.87,South,191,0.0,10.0,84,0.00,,,0.06,Wunderground v.1.15,2013-04-04 21:55:00,
2013-04-04 18:00:00,70.9,65.8,29.87,South,191,0.0,10.0,84,0.00,,,0.06,Wunderground v.1.15,2013-04-04 22:00:00,
2013-04-04 18:05:00,70.7,65.6,29.87,South,191,1.0,10.0,84,0.00,,,0.06,Wunderground v.1.15,2013-04-04 22:05:00,
2013-04-04 18:15:00,70.5,65.4,29.86,SSE,167,1.0,1.0,84,0.00,,,0.06,Wunderground v.1.15,2013-04-04 22:15:00,
2013-04-04 18:20:00,70.3,65.6,29.87,SSW,192,2.0,2.0,85,0.00,,,0.06,Wunderground v.1.15,2013-04-04 22:20:00,
2013-04-04 18:25:00,70.4,66.0,29.86,SSW,192,1.0,1.0,86,0.00,,,0.06,Wunderground v.1.15,2013-04-04 22:25:00,
2013-04-04 18:30:00,70.6,65.9,29.86,SSW,192,0.0,10.0,85,0.00,,,0.06,Wunderground v.1.15,2013-04-04 22:30:00,
2013-04-04 18:35:00,70.6,65.9,29.86,SSW,192,0.0,10.0,85,0.00,,,0.06,Wunderground v.1.15,2013-04-04 22:35:00,
2013-04-04 18:45:00,70.5,66.1,29.86,SSW,192,0.0,10.0,86,0.00,,,0.06,Wunderground v.1.15,2013-04-04 22:45:00,
2013-04-04 18:50:00,70.4,66.0,29.85,SSW,192,0.0,10.0,86,0.00,,,0.06,Wunderground v.1.15,2013-04-04 22:50:00,
2013-04-04 18:55:00,70.2,65.8,29.85,SSW,192,0.0,10.0,86,0.00,,,0.06,Wunderground v.1.15,2013-04-04 22:55:00,
2013-04-04 19:05:00,70.2,65.8,29.85,SSW,192,0.0,10.0,86,0.00,,,0.06,Wunderground v.1.15,2013-04-04 23:05:00,
2013-04-04 19:10:00,70.2,66.1,29.85,SSW,192,0.0,10.0,87,0.00,,,0.06,Wunderground v.1.15,2013-04-04 23:10:00,
2013-04-04 19:15:00,70.3,66.2,29.85,SSW,192,0.0,10.0,87,0.00,,,0.06,Wunderground v.1.15,2013-04-04 23:15:00,
2013-04-04 19:20:00,70.2,66.1,29.85,SSW,192,0.0,10.0,87,0.00,,,0.06,Wunderground v.1.15,2013-04-04 23:20:00,
2013-04-04 19:30:00,70.0,65.6,29.85,SSW,192,0.0,10.0,86,0.00,,,0.06,Wunderground v.1.15,2013-04-04 23:30:00,
2013-04-04 19:35:00,69.8,65.4,29.84,SSW,192,0.0,10.0,86,0.00,,,0.06,Wunderground v.1.15,2013-04-04 23:35:00,
2013-04-04 19:45:00,69.3,64.9,29.84,SSW,192,0.0,10.0,86,0.00,,,0.06,Wunderground v.1.15,2013-04-04 23:45:00,
2013-04-04 19:50:00,69.1,64.7,29.85,SSW,192,0.0,10.0,86,0.00,,,0.06,Wunderground v.1.15,2013-04-04 23:50:00,
2013-04-04 19:55:00,69.0,65.0,29.85,SSW,192,0.0,10.0,87,0.00,,,0.06,Wunderground v.1.15,2013-04-04 23:55:00,
2013-04-04 20:00:00,68.8,65.1,29.86,SSW,192,0.0,10.0,88,0.00,,,0.06,Wunderground v.1.15,2013-04-05 00:00:00,
2013-04-04 20:05:00,68.6,64.6,29.86,SSW,192,0.0,10.0,87,0.00,,,0.06,Wunderground v.1.15,2013-04-05 00:05:00,
2013-04-04 20:10:00,68.5,64.8,29.87,SSW,192,0.0,10.0,88,0.00,,,0.06,Wunderground v.1.15,2013-04-05 00:10:00,
2013-04-04 20:15:00,68.3,64.9,29.87,SSW,192,0.0,10.0,89,0.00,,,0.06,Wunderground v.1.15,2013-04-05 00:15:00,
2013-04-04 20:20:00,68.1,64.7,29.87,SSW,192,0.0,10.0,89,0.00,,,0.06,Wunderground v.1.15,2013-04-05 00:20:00,